Home   Weather   Mashhad   Past weeks

Flag for Iran Past Weather in Mashhad, Iran — Yesterday and Last 2 Weeks

Now
30 °F

Haze.


Feels Like: 23 °F
Forecast: 12 / 40 °F
Wind: 7 mph from East

Location: Mashhad Airport

Current Time: Feb 19, 2017 at 3:40:06 pm

Latest Report: Feb 19, 2017 at 3:00 pm


Visibility: 3 mi

Pressure: 30.48 "Hg (26.95 "Hg at 981m altitude)

Humidity: 69%

Dew Point: 21 °F

Location of MashhadLocation

Past Weather in Mashhad — Graph

°F

Mashhad Temperature Yesterday

Maximum temperature yesterday: 34 °F (at 10:00 am)
Minimum temperature yesterday: 21 °F (at 11:30 pm)
Average temperature yesterday: 27 °F

High & Low Weather Summary for the Past Weeks

 TemperatureHumidityPressure
High66 °F (Feb 16, 11:30 am)100% (Feb 4, 11:30 pm)30.54 "Hg (Feb 4, 11:30 pm)
Low9 °F (Feb 5, 5:30 am)37% (Feb 8, 3:00 pm)29.77 "Hg (Feb 16, 2:00 pm)
Average35 °F86%30.14 "Hg
* Reported Feb 4 2:30 pm — Feb 19 2:30 pm, Mashhad, Weather by CustomWeather, © 2017

Note: Actual official high and low records may vary slightly from our data, if they occured in-between our weather recording intervals... More about our weather records

Advertising

Mashhad Weather History for the Previous 24 Hours

Scroll right to see more
 ConditionsComfort  
Time TempWeatherWind HumidityBarometerVisibility
2:30 pm
Sun, Feb 19
30 °FHaze.7 mph69%30.48 "Hg2 mi
2:00 pm28 °FScattered clouds.9 mph74%30.48 "Hg4 mi
1:30 pm30 °FPartly sunny.9 mph69%30.48 "Hg2 mi
1:00 pm28 °FPartly sunny.7 mph74%30.48 "Hg2 mi
12:30 pm32 °FPartly sunny.9 mph69%30.51 "Hg1 mi
12:00 pm30 °FPartly sunny.7 mph69%30.51 "Hg1 mi
11:30 am32 °FPartly sunny.7 mph64%30.51 "Hg1 mi
11:00 am32 °FPartly sunny.9 mph75%30.54 "Hg1 mi
10:30 am30 °FIce fog.7 mph75%30.54 "Hg1 mi
10:00 am30 °FIce fog.5 mph86%30.54 "Hg1 mi
9:30 am28 °FIce fog.No wind80%30.54 "Hg1 mi
8:30 am25 °FIce fog.7 mph93%30.54 "Hg1 mi
8:00 am23 °FIce fog.7 mph93%30.54 "Hg2 mi
7:30 am19 °FOvercast.7 mph100%30.51 "Hg4 mi
7:00 am19 °FOvercast.7 mph93%30.51 "Hg5 mi
6:30 am21 °FOvercast.7 mph93%30.48 "Hg4 mi
6:00 am19 °FIce fog.No wind93%30.48 "Hg3 mi
5:30 am19 °FOvercast.5 mph93%30.48 "Hg4 mi
5:00 am19 °FOvercast.No wind93%30.48 "Hg4 mi
4:30 am19 °FOvercast.7 mph93%30.48 "Hg4 mi
4:00 am19 °FOvercast.5 mph100%30.45 "Hg4 mi
3:30 am19 °FIce fog.9 mph100%30.45 "Hg3 mi
3:00 am19 °FOvercast.12 mph100%30.45 "Hg4 mi
2:30 am19 °FIce fog.12 mph100%30.45 "Hg3 mi
2:00 am19 °FOvercast.9 mph100%30.45 "Hg4 mi
1:30 am21 °FPassing clouds.7 mph100%30.45 "Hg4 mi
1:00 am21 °FSnow flurries. Overcast.7 mph100%30.45 "Hg4 mi
12:30 am21 °FSnow flurries. Low clouds.9 mph100%30.45 "Hg3 mi
12:00 am21 °FSnow flurries. Low clouds.5 mph100%30.45 "Hg4 mi
11:30 pm
Sat, Feb 18
21 °FSnow flurries. Low clouds.7 mph100%30.45 "Hg4 mi
11:00 pm23 °FLight snow. Mostly cloudy.7 mph100%30.45 "Hg4 mi
10:30 pm23 °FLight snow. Mostly cloudy.7 mph100%30.45 "Hg4 mi
10:00 pm23 °FLight snow. Ice fog.7 mph100%30.45 "Hg2 mi
9:30 pm23 °FLight snow. Ice fog.No wind100%30.45 "Hg2 mi
9:00 pm23 °FLight snow. Ice fog.7 mph100%30.42 "Hg2 mi
8:30 pm23 °FLight snow. Ice fog.7 mph100%30.42 "Hg2 mi
8:00 pm23 °FLight snow. Ice fog.7 mph100%30.42 "Hg2 mi
7:30 pm23 °FLight snow. Ice fog.9 mph100%30.42 "Hg2 mi
7:00 pm23 °FLight snow. Ice fog.9 mph100%30.39 "Hg2 mi
6:30 pm25 °FLight snow. Ice fog.7 mph100%30.36 "Hg2 mi
6:00 pm25 °FLight snow. Ice fog.9 mph100%30.36 "Hg2 mi
5:30 pm25 °FLight snow. Ice fog.12 mph100%30.33 "Hg2 mi
5:00 pm27 °FLight snow. Mostly cloudy.12 mph100%30.33 "Hg4 mi
4:30 pm27 °FLight snow. Mostly cloudy.9 mph100%30.30 "Hg4 mi
4:00 pm27 °FLight snow. Mostly cloudy.14 mph100%30.27 "Hg4 mi
3:30 pm28 °FLight snow. Ice fog.12 mph93%30.27 "Hg1 mi
3:00 pm28 °FLight snow. Ice fog.7 mph100%30.24 "Hg1 mi
Weather by CustomWeather, © 2017

See weather overviewHow to use our weather pages